This is the latest recevied weather packets stored in our database for station/object SALT. If no packets are shown the sender has not sent any weather packets the latest 10 day(s).
| Time | Temp. | Humidity | Pressure | Rain* | Wind** | Luminosity | Snow |
|---|---|---|---|---|---|---|---|
| 1777936649 | 15.56° C | 41% | 1011.7 hPa | 0 mm | - | - | - |
| 1777936046 | 15.56° C | 40% | 1011.8 hPa | 0 mm | - | - | - |
| 1777935443 | 16.67° C | 40% | 1011.8 hPa | 0 mm | - | - | - |
| 1777934840 | 17.22° C | 41% | 1011.9 hPa | 0 mm | - | - | - |
| 1777934237 | 16.11° C | 40% | 1012.1 hPa | 0 mm | - | - | - |
| 1777933633 | 17.22° C | 39% | 1012.1 hPa | 0 mm | - | - | - |
| 1777933030 | 16.67° C | 38% | 1012.3 hPa | 0 mm | - | - | - |
| 1777932427 | 17.22° C | 37% | 1012.4 hPa | 0 mm | - | - | - |
| 1777931824 | 16.67° C | 36% | 1012.6 hPa | 0 mm | - | - | - |
| 1777931222 | 16.67° C | 38% | 1012.6 hPa | 0 mm | - | - | - |
| 1777930617 | 16.67° C | 37% | 1012.6 hPa | 0 mm | - | - | - |
| 1777930014 | 16.67° C | 36% | 1012.7 hPa | 0 mm | - | - | - |
| 1777929476 | 16.67° C | 35% | 1012.8 hPa | 0 mm | - | - | - |
| 1777929411 | 16.67° C | 35% | 1012.8 hPa | 0 mm | - | - | - |
| 1777928846 | 16.67° C | 36% | 1012.8 hPa | 0 mm | - | - | - |
| 1777928809 | 16.67° C | 36% | 1012.8 hPa | 0 mm | - | - | - |
| 1777928206 | 16.67° C | 36% | 1012.9 hPa | 0 mm | - | - | - |
| 1777927604 | 16.11° C | 33% | 1012.9 hPa | 0 mm | - | - | - |
| 1777927000 | 16.67° C | 30% | 1012.9 hPa | 0 mm | - | - | - |
| 1777926397 | 16.11° C | 28% | 1013 hPa | 0 mm | - | - | - |
| 1777925794 | 16.11° C | 26% | 1012.8 hPa | 0 mm | - | - | - |
| 1777925192 | 16.67° C | 30% | 1012.9 hPa | 0 mm | - | - | - |
| 1777924589 | 16.11° C | 34% | 1013 hPa | 0 mm | - | - | - |
| 1777923381 | 16.11° C | 32% | 1013.1 hPa | 0 mm | - | - | - |
| 1777922778 | 16.11° C | 37% | 1013.1 hPa | 0 mm | - | - | - |
* Rain latest 24 hours (hover to see other rain measurements)
** Current wind speed in m/s (hover to see current wind gust speed)